GALAXY 30

Last updated on Oct. 31, 2020, 5:53 a.m. UTC

1 46114U 20056C   20304.89314031 -.00000175  00000-0  00000-0 0  9991
2 46114   0.0039 214.3430 0002352  35.0604 196.3700  1.00272083   815
UTC
Height (km)
Latitude
Longitude
Inclination
Orbital Period
UTC large
Height (km)
Speed (km/s)
/
Latitude / Longitude
Inclination (degrees)
Orbital Period (minutes)
Azimuth
Elevation
Range (km)
Doppler Factor
iOS Compass Heading
iOS Angle

Next 30 passes for location: Hong Kong

Rise time Rise Azimuth (degrees) Set time Set Azimuth (degrees) Duration Max altitude (degrees)

No matching passes for this satellites